sat.trackr.live / text

‹ back to catalog

POPACS 3

NORAD 39270 · 2013-055F

PAYLOAD ACTIVE UNKNOWN

§ Identity

Operator
Country
US
Launch date
2013-09-29
Launch site
AFWTR
Launch vehicle
Mass (kg)
RCS (m²)
0.02

Purposes: tech_demo

External: N2YO · Heavens-Above · Gunter

§ Orbital elements

Epoch: 2026-05-25T00:38:31.403904Z

Period
98.93 min
Inclination
81.0015°
Eccentricity
0.0554383
Mean motion
14.55547465 rev/d
Perigee alt
314.8 km
Apogee alt
1,100.4 km
Semi-major
7,085.7 km
B*
3.2809e-4
RAAN
254.2845°
Arg perigee
140.4308°
Mean anomaly
223.8766°
Rev number
63,518

§ Raw data

POPACS 31 39270U 13055F   26145.02675236  .00013856  00000+0  32809-3 0  99912 39270  81.0015 254.2845 0554383 140.4308 223.8766 14.55547465635189

JSON: /api/v1/satellites/39270 · /tle

For live sub-satellite position, see the globe view (requires WebGL).

§ Visibility from observer

Set your observer location to see the next 7 days of passes ≥ 10°. The values pass through the URL so the page stays shareable.

No JS? Fill the form by hand. The geolocation button needs JavaScript.